Location: Little Arabia
(41.4620°N, 81.7687°W)
Time: 20:30:24
(UTC+00:00)

NOSS 3-3 (A) - Pass Details

Date: 29 October 2020
Orbit: 819 x 1393 km, 63.4° (Epoch: 29 November)

Event Time Altitude Azimuth Distance (km) Brightness Sun altitude
Rises 23:23:36 0° 204° (SSW) 3,361 7.3 -11.5°
Reaches altitude 10° 23:25:58 10° 202° (SSW) 2,462 6.5 -11.9°
Maximum altitude 23:31:34 67° 120° (ESE) 976 3.8 -13.0°
Drops below altitude 10° 23:37:51 10° 40° (NE) 2,762 6.0 -14.1°
Enters shadow 23:38:31 - 39° (NE) 3,006 6.1 -14.3°
